Zurück zum Katalog

YZ-1S R/B

AktivHEO
NORAD 60326·ROCKET BODY·🇨🇳 China

Gestartet Mar 13, 2024 von Xichang Satellite Launch Center

Loading…

Nächste Überflüge (nächste 24 Stunden)

TLE

AktuellSource: Space-Track

Epoche: Sep 15, 2026, 07:15 UTC

1 60326U 24048E   26258.30221094 -.00001175  00000-0  25046-2 0  9993
2 60326  15.4315 293.2141 8922287 260.1111 358.9493  0.47335060  4160

Verfolge YZ-1S R/B in Echtzeit mit AllMySat

Download on the App Store